Weather in Pupki

Russia / Ryazan Oblast     53°46′36″N   39°27′58″E
temp.,
°C
wind,
m/s
gust,
m/s
humid.,
%
clouds,
%
prec.,
mm/h
press.,
hPa
HPBL,
m
18 may, tue
tue1800:00+18se4157236 0.0 1010307
03:00+15ese4137734 0.0 1010239
06:00+15ese4127444 0.0 1009237
09:00+21se512603 0.0 1009448
12:00+24ese69525 0.0 1009676
15:00+26e713547 0.0 10071127
18:00+24ese815635 0.0 1006645
21:00+19e517760 0.0 1006385
19 may, wed
wed1900:00+17se510703 0.0 1006229
03:00+15sse389689 0.1 1007204
06:00+15se49935 0.0 1008403
09:00+19sse46753 0.0 1009731
12:00+22se576336 0.0 10081478
15:00+23se696119 0.4 10081679
18:00+21se4874100 0.4 1007424
21:00+18sse378399 0.8 1007116
20 may, thu
thu2000:00+14sse41191100 0.1 1007274
03:00+13se5991100 0.9 1007418
06:00+12sse6129383 0.3 1007580
09:00+16sse8117623 0.3 10071074
12:00+17sse8116992 0.6 10071519
15:00+18s796756 1.6 10081441
18:00+16s5981100 1.5 1009891
21:00+13s37935 1.9 1010148
21 may, fri
fri2100:00+11sw369690 0.0 1010147
03:00+12sw3695100 0.2 1010230
06:00+11w4794100 0.8 1011425
09:00+13wsw578091 0.8 1013945
12:00+14w677788 0.1 1014997
15:00+14wnw4577100 0.1 1015967
18:00+14w2481100 0.0 1016469
21:00+13w1177100 0.0 101712
22 may, sat
sat2200:00+11w1185100 0.0 101810
03:00+11wsw1186100 0.0 101911
06:00+12ene2388100 0.2 1018103
09:00+12se2391100 1.7 1020272
12:00+11ene3698100 5.6 1020263
15:00+12e4897100 6.9 1019346
18:00+12ene51098100 1.7 1018343
21:00+12ne51198100 2.0 1017360